This demonstration page uses our WeatherBlox Daily Observations layout. Learn more.

Left ArrowRight Arrow

Hourly Observations for March 6, 2021

Temp ( °F °C ) Dew Point ( °F °C ) Humidity (%) Winds ( mph kmh ) Pressure ( in mb ) Visibility ( mi km ) Precip ( " mm )
12:53 am 00:53 Clear 31 -0.6 25 -3.9 79 79 N N/A 29.89 1012 10 16 N/A
1:53 am 01:53 Clear 29 -1.7 25 -3.9 85 85 ESE 6 9 29.89 1012 10 16 N/A
2:53 am 02:53 Clear 31 -0.6 25 -3.9 79 79 E 6 9 29.86 1011 10 16 N/A
3:53 am 03:53 Clear 30 -1.1 25 -3.9 82 82 E 7 11 29.85 1011 10 16 N/A
4:53 am 04:53 Clear 30 -1.1 24 -4.4 79 79 ENE 7 11 29.83 1010 10 16 N/A
5:53 am 05:53 Clear 30 -1.1 24 -4.4 79 79 E 6 9 29.83 1010 10 16 N/A
6:53 am 06:53 Sunny 29 -1.7 24 -4.4 82 82 N N/A 29.81 1010 10 16 N/A
7:53 am 07:53 Sunny 30 -1.1 25 -3.9 82 82 ENE 9 15 29.76 1008 10 16 N/A
8:53 am 08:53 Sunny 33 0.6 26 -3.3 75 75 ENE 6 9 29.71 1006 10 16 N/A
9:53 am 09:53 Sunny 38 3.3 29 -1.7 70 70 E 5 7 29.69 1005 10 16 N/A
10:53 am 10:53 Sunny 43 6.1 28 -2.2 56 56 N N/A 29.69 1005 10 16 N/A
11:53 am 11:53 Sunny 44 6.7 30 -1.1 58 58 WNW 5 7 29.65 1004 10 16 N/A
12:53 pm 12:53 Sunny 46 7.8 30 -1.1 54 54 N N/A 29.63 1003 10 16 N/A
1:53 pm 13:53 Sunny 47 8.3 30 -1.1 52 52 N N/A 29.62 1003 10 16 N/A
2:53 pm 14:53 Sunny 50 10 34 1.1 54 54 WSW 10 17 29.61 1003 10 16 N/A
3:53 pm 15:53 Sunny 54 12.2 33 0.6 45 45 SW 13 20 29.63 1004 10 16 N/A
4:53 pm 16:53 Mostly Cloudy 52 11.1 33 0.6 49 49 W 6 9 29.66 1004 10 16 N/A
5:53 pm 17:53 Cloudy 52 11.1 31 -0.6 45 45 NNW 6 9 29.70 1006 10 16 N/A
6:53 pm 18:53 Cloudy 48 8.9 34 1.1 58 58 SW 7 11 29.74 1007 10 16 0.00 0.00
7:53 pm 19:53 Partly Cloudy 46 7.8 31 -0.6 56 56 WNW 21 33 29.77 1008 10 16 N/A
8:53 pm 20:53 Mostly Cloudy 38 3.3 29 -1.7 70 70 NW 22 35 29.82 1010 10 16 N/A
9:53 pm 21:53 Clear 34 1.1 28 -2.2 79 79 SSW 12 19 29.86 1011 10 16 N/A
10:53 pm 22:53 Clear 34 1.1 27 -2.8 76 76 WSW 9 15 29.89 1012 10 16 N/A
11:53 pm 23:53 Mostly Clear 33 0.6 27 -2.8 78 78 WSW 13 20 29.92 1013 10 16 N/A

Powered by AerisWeather